[[{"header":{"parameterUnit":"m.s-1","parameterCategory":1,"la1":30.2991,"la2":30.254,"lo1":-89.0895,"lo2":-89.0444,"dy":0.0017,"dx":0.0017,"nx":28,"ny":28,"refTime":"2023-08-26T03:00:00:Z","depth":0,"parameterNumber":2,"parameterNumberName":"U-component_of_WINDS"},"data":[0,0,0,0,0,0,0,0,0,0,0,0,0,0,0,0,0,0,0,0,0,0,0,0,0,0,0,0,0,0,0,0,0,0,0,0,0,0,0,0,0,0,0,0,0,0,0,0,0,0,0,0,0,0,0,0,0,0,1.6226,1.6227,0,1.6373,1.6375,1.6377,1.6375,1.6373,1.6371,1.6369,1.6523,1.6529,1.6535,0,0,0,0,0,0,0,0,0,0,0,0,0,1.5945,1.595,1.6226,1.6228,1.6229,1.6373,1.6375,1.6377,1.6375,1.6373,1.637,1.6368,1.6522,1.6529,1.6536,0,0,0,0,0,0,0,0,0,0,0,0,0,1.6077,1.5952,1.6225,1.6246,1.6249,1.6373,1.6375,1.6378,1.6376,1.6373,1.637,1.6367,1.6519,1.6528,1.6537,1.6651,0,0,1.6564,1.6568,0,0,0,0,0,0,0,0,1.607,1.6087,1.6241,1.6244,1.6248,1.6353,1.6333,1.647,1.6376,1.6328,1.6369,1.6365,1.6469,1.6482,1.6516,1.6658,1.6665,1.6565,1.657,1.6574,1.6577,0,0,0,0,0,0,0,1.606,1.6081,1.6284,1.6243,1.6248,1.6248,1.6264,1.6359,1.6413,1.6332,1.6332,1.6349,1.6471,1.6508,1.652,1.6667,1.6565,1.6572,1.6578,1.6581,1.691,1.6913,0,0,0,0,0,0,1.6047,1.6073,1.628,1.6289,1.615,1.6256,1.6273,1.6322,1.6412,1.6423,1.6352,1.6349,1.6494,1.651,1.6525,1.6664,1.6574,1.6582,1.6587,1.6906,1.6911,1.6914,0,0,0,0,0,0,1.6041,1.6065,1.6274,1.6181,1.6208,1.6264,1.6319,1.6327,1.6364,1.6427,1.6437,1.6379,1.6492,1.6513,1.6619,1.6669,1.6586,1.6594,1.6903,1.6908,1.6912,1.6943,0,0,0,0,0,0,1.6033,1.6063,1.6106,1.6182,1.6213,1.6364,1.6322,1.6332,1.6379,1.6376,1.6456,1.6466,1.6492,1.6606,1.6628,1.668,1.6601,1.6898,1.6905,1.6911,1.6938,1.6948,1.6958,0,0,0,0,0,1.6023,1.611,1.6108,1.6133,1.6268,1.6367,1.6385,1.6411,1.6383,1.6427,1.6468,1.6464,1.6661,1.6617,1.6642,1.6697,1.6895,1.6903,1.691,1.6933,1.6946,1.6957,0,0,0,0,0,0,1.6039,1.612,1.6119,1.6234,1.6293,1.6366,1.6423,1.6424,1.6494,1.6489,1.652,1.6538,1.6644,1.6682,1.6632,1.6813,1.6775,1.6788,1.6783,1.6797,1.6806,1.6794,1.6609,0,0,0,0,0,1.6056,1.6129,1.6196,1.6291,1.6321,1.6367,1.6411,1.6426,1.649,1.6515,1.6564,1.6627,1.6703,1.6752,1.6826,1.6944,1.6961,1.6995,1.7004,1.7012,1.7023,1.7087,1.7102,1.6939,1.6939,1.6939,0,0,1.6092,1.6145,1.619,1.6296,1.6344,1.6419,1.6388,1.6469,1.6526,1.6528,1.663,1.6669,1.6741,1.6853,1.6906,1.6888,1.7072,1.7022,1.7028,1.7034,1.7096,1.7112,1.7125,1.6944,1.6943,1.6942,0,0,1.6195,1.6243,1.6326,1.6375,1.6448,1.6478,1.6498,1.6571,1.6596,1.67,1.6703,1.6771,1.6902,1.6952,1.6995,1.7118,1.7116,1.7141,1.7193,1.7255,1.7268,1.7279,1.7322,1.7337,1.7152,1.7152,1.7152,0,1.623,1.6343,1.6369,1.6451,1.6497,1.6502,1.6586,1.6633,1.6726,1.6759,1.6738,1.6901,1.695,1.7074,1.7104,1.7139,1.7163,1.7131,1.7264,1.7276,1.7287,1.7327,1.7343,1.7154,1.7154,1.7154,1.7154,0,1.6382,1.6461,1.6519,1.6608,1.6661,1.6744,1.6783,1.6834,1.6845,1.6878,1.6983,1.7042,1.7127,1.7158,1.7171,1.7284,1.7271,1.7257,1.7219,1.7304,1.7343,1.7359,1.7158,1.7157,1.7156,1.7156,0,0,1.6498,1.6601,1.6622,1.6661,1.6742,1.6804,1.6887,1.6969,1.7012,1.7077,1.7147,1.7257,1.7244,1.7293,1.7311,1.7366,1.7458,1.7346,1.7348,1.7363,1.7586,1.7594,1.7612,1.7458,1.7461,1.7464,1.7579,0,1.6608,1.6755,1.6781,1.6909,1.6981,1.6987,1.706,1.7118,1.7151,1.7218,1.7255,1.7332,1.731,1.7339,1.7394,1.7435,1.7503,1.7428,1.7524,1.7527,1.7503,1.7632,1.7642,1.7747,1.7594,1.7597,1.7599,0,1.6756,1.6823,1.6958,1.7028,1.706,1.7124,1.7201,1.7265,1.7331,1.7351,1.7406,1.7418,1.7505,1.7464,1.7585,1.7533,1.7574,1.76,1.7605,1.7613,1.7566,1.7642,1.7782,1.7796,1.7623,1.7621,1.762,0,1.6825,1.6949,1.7045,1.708,1.7165,1.721,1.7248,1.7311,1.7359,1.7427,1.7458,1.7536,1.7578,1.7639,1.7671,1.7639,1.7789,1.7751,1.7808,1.7807,1.7837,1.7835,1.7983,1.7867,1.7867,1.7867,1.7866,0,1.6943,1.7025,1.7077,1.7136,1.7228,1.7259,1.7349,1.7386,1.7442,1.7509,1.7521,1.7583,1.7624,1.7692,1.7719,1.7814,1.7834,1.7852,1.7858,1.785,1.7847,1.7876,1.7869,1.7871,1.787,1.7869,1.7869,0,1.7035,1.7073,1.7178,1.725,1.727,1.7335,1.7397,1.7455,1.7488,1.7573,1.7594,1.7647,1.7728,1.7767,1.7869,1.7887,1.7994,1.7996,1.7971,1.7972,1.8026,1.8019,1.8196,1.822,1.809,1.8091,1.8093,0,1.7107,1.7169,1.7248,1.7293,1.7332,1.7405,1.7453,1.7486,1.7536,1.7616,1.7664,1.7746,1.7813,1.7943,1.799,1.8068,1.8071,1.8128,1.8082,1.8072,1.8069,1.8064,1.807,1.8135,1.8136,1.8137,1.8138,0,1.723,1.7246,1.7314,1.739,1.7447,1.7508,1.7569,1.7605,1.7648,1.7704,1.7786,1.7838,1.7941,1.8022,1.8103,1.8143,1.8148,1.8152,1.8169,1.816,1.8142,1.8151,1.799,1.8147,1.8146,1.8146,1.8145,1.8145,1.7312,1.7368,1.7432,1.7508,1.7557,1.7613,1.767,1.7711,1.778,1.7865,1.7882,1.7969,1.8034,1.8143,1.8186,1.8255,1.8243,1.8267,1.8273,1.8278,1.828,1.8133,1.8271,1.8271,1.827,1.827,1.827,0,1.7434,1.7476,1.7546,1.7629,1.7689,1.7688,1.7755,1.7805,1.7882,1.7942,1.8007,1.8102,1.8181,1.8235,1.8315,1.836,1.8364,1.838,1.8375,1.8384,1.8288,1.8264,1.8375,1.8375,1.8375,1.8375,1.8375,1.8375,1.7504,1.7598,1.7622,1.774,1.7782,1.7867,1.7905,1.7957,1.8004,1.8109,1.8174,1.8209,1.8267,1.8351,1.8423,1.8437,1.8465,1.8481,1.8494,1.8402,1.8391,1.8381,1.8359,1.8487,1.8487,1.8584,1.8585,1.8586]},{"header":{"parameterUnit":"m.s-1","parameterCategory":1,"la1":30.2991,"la2":30.254,"lo1":-89.0895,"lo2":-89.0444,"dy":0.0017,"dx":0.0017,"nx":28,"ny":28,"refTime":"2023-08-26T03:00:00:Z","depth":0,"parameterNumber":3,"parameterNumberName":"V-component_of_WINDS"},"data":[0,0,0,0,0,0,0,0,0,0,0,0,0,0,0,0,0,0,0,0,0,0,0,0,0,0,0,0,0,0,0,0,0,0,0,0,0,0,0,0,0,0,0,0,0,0,0,0,0,0,0,0,0,0,0,0,0,0,2.9083,2.9084,0,2.9107,2.9107,2.9108,2.907,2.9069,2.9067,2.9066,2.9089,2.9091,2.9093,0,0,0,0,0,0,0,0,0,0,0,0,0,2.9002,2.9004,2.9083,2.9084,2.9084,2.9107,2.9107,2.9108,2.907,2.9069,2.9067,2.9066,2.9089,2.9091,2.9093,0,0,0,0,0,0,0,0,0,0,0,0,0,2.9033,2.9004,2.9083,2.9068,2.9067,2.9107,2.9107,2.9108,2.9071,2.9069,2.9067,2.9065,2.9088,2.909,2.9093,2.9149,0,0,2.9101,2.9103,0,0,0,0,0,0,0,0,2.9031,2.9036,2.907,2.9069,2.9068,2.9084,2.9087,2.9122,2.9071,2.9069,2.9066,2.9064,2.9089,2.9091,2.91,2.915,2.9151,2.9102,2.9103,2.9105,2.9105,0,0,0,0,0,0,0,2.9029,2.9035,2.9093,2.9071,2.9069,2.9059,2.9061,2.9093,2.909,2.9069,2.9067,2.907,2.9088,2.9097,2.91,2.9151,2.9102,2.9104,2.9106,2.9107,2.9244,2.9246,0,0,0,0,0,0,2.9029,2.9033,2.9092,2.9093,2.9044,2.9062,2.9064,2.9081,2.9089,2.9089,2.9072,2.9068,2.9094,2.9097,2.9101,2.9164,2.9105,2.9107,2.9109,2.9242,2.9244,2.9246,0,0,0,0,0,0,2.9028,2.9035,2.9091,2.9063,2.9069,2.9065,2.9084,2.9082,2.9092,2.9091,2.909,2.9082,2.9092,2.9097,2.9136,2.9164,2.9108,2.9111,2.924,2.9243,2.9245,2.9292,0,0,0,0,0,0,2.9025,2.9034,2.9057,2.9063,2.9071,2.9127,2.9086,2.9084,2.9097,2.9092,2.9101,2.91,2.9091,2.9132,2.9139,2.9167,2.9113,2.9237,2.9241,2.9244,2.9287,2.9296,2.9303,0,0,0,0,0,2.9023,2.9069,2.9058,2.9065,2.9098,2.9129,2.9133,2.9122,2.9099,2.912,2.9119,2.91,2.916,2.9137,2.9144,2.9173,2.9235,2.924,2.9244,2.9284,2.9294,2.9303,0,0,0,0,0,0,2.9066,2.907,2.9057,2.9108,2.9118,2.9123,2.9149,2.9134,2.9151,2.9146,2.9131,2.9134,2.9175,2.9178,2.9152,2.9225,2.9194,2.92,2.9222,2.9231,2.9239,2.9236,2.9115,0,0,0,0,0,2.9082,2.9107,2.9109,2.9153,2.9159,2.9153,2.9166,2.9157,2.9167,2.9171,2.9173,2.9183,2.9204,2.9218,2.9238,2.9288,2.9288,2.9311,2.9319,2.9325,2.933,2.9354,2.9363,2.9261,2.9261,2.9261,0,0,2.9114,2.9119,2.9136,2.9162,2.9169,2.9193,2.9157,2.9186,2.9204,2.9175,2.9212,2.9214,2.9224,2.9268,2.9288,2.9272,2.9358,2.9331,2.9336,2.9337,2.9359,2.9369,2.9378,2.9264,2.9264,2.9263,0,0,2.9185,2.9193,2.9228,2.9235,2.9246,2.9242,2.925,2.9257,2.9256,2.9293,2.9271,2.9292,2.9329,2.9336,2.9344,2.9415,2.9396,2.9422,2.9461,2.9484,2.9492,2.9499,2.9521,2.953,2.9427,2.9427,2.9427,0,2.9223,2.9261,2.9249,2.9278,2.9288,2.9264,2.9298,2.9306,2.9323,2.933,2.9312,2.9356,2.9361,2.9405,2.9422,2.9431,2.9438,2.942,2.9492,2.9499,2.9505,2.9526,2.9535,2.943,2.9429,2.9429,2.9429,0,2.9305,2.9332,2.9359,2.9375,2.9389,2.9421,2.9412,2.9427,2.9416,2.9413,2.9449,2.9454,2.9473,2.9483,2.9473,2.9525,2.9514,2.9495,2.9462,2.9518,2.9537,2.9546,2.9434,2.9433,2.9432,2.9431,0,0,2.9405,2.9412,2.9422,2.9427,2.9436,2.9455,2.9485,2.9503,2.9515,2.9527,2.955,2.9581,2.9562,2.9571,2.9562,2.9583,2.9634,2.956,2.956,2.9571,2.9688,2.9701,2.971,2.9623,2.9624,2.9626,2.9686,0,2.9473,2.9524,2.9513,2.9563,2.9585,2.956,2.9586,2.9593,2.9591,2.9608,2.9606,2.9626,2.9602,2.9607,2.9626,2.9624,2.9657,2.962,2.9642,2.9643,2.9638,2.9721,2.9735,2.9792,2.9694,2.9695,2.9696,0,2.9559,2.9573,2.9625,2.9627,2.9635,2.9659,2.9672,2.969,2.9697,2.9694,2.9703,2.9689,2.9716,2.9685,2.9722,2.9696,2.9705,2.9705,2.9707,2.9707,2.9671,2.9721,2.981,2.9818,2.9709,2.9708,2.9707,0,2.9622,2.9654,2.9688,2.9694,2.9698,2.9714,2.9717,2.9722,2.9732,2.9744,2.975,2.9766,2.9774,2.9785,2.9775,2.9753,2.9812,2.978,2.9808,2.9808,2.982,2.9819,2.991,2.983,2.9829,2.9829,2.9829,0,2.9698,2.973,2.9716,2.9737,2.9771,2.9757,2.9791,2.9791,2.9795,2.9814,2.9795,2.9813,2.9799,2.9815,2.9808,2.9837,2.9842,2.9838,2.9835,2.9839,2.9839,2.9843,2.9837,2.9832,2.9831,2.9831,2.983,0,2.9774,2.9766,2.9801,2.9802,2.9802,2.9827,2.9827,2.9845,2.9841,2.9865,2.987,2.9863,2.9881,2.9872,2.9892,2.9886,2.9924,2.9917,2.9921,2.9918,2.9945,2.9942,3.004,3.0051,2.9966,2.9967,2.9968,0,2.9822,2.9845,2.9848,2.9859,2.9862,2.9881,2.989,2.9877,2.9888,2.9896,2.9913,2.993,2.9942,2.9972,2.9968,2.9982,2.9974,3.0007,2.9976,2.9978,2.9971,2.9969,2.997,3.0013,3.0014,3.0015,3.0016,0,2.9906,2.99,2.9915,2.9928,2.994,2.995,2.9958,2.9968,2.9955,2.9968,2.9986,2.9996,3.0014,3.003,3.0042,3.0043,3.0027,3.0026,3.0032,3.0035,3.0035,3.0033,2.9936,3.0023,3.0022,3.0022,3.0021,3.0021,2.9968,2.9986,2.9989,3.0006,3.001,3.0018,3.0034,3.0031,3.0045,3.0059,3.005,3.0071,3.0075,3.0089,3.0092,3.0107,3.0094,3.0104,3.0106,3.0108,3.0111,3.0034,3.011,3.0109,3.0109,3.0109,3.0109,0,3.0048,3.0049,3.0064,3.0075,3.0087,3.0071,3.0078,3.0089,3.0107,3.0112,3.0124,3.0143,3.0158,3.0155,3.0168,3.018,3.0172,3.0184,3.0181,3.0181,3.0123,3.0115,3.0189,3.0189,3.0189,3.0189,3.0189,3.0189,3.0092,3.0121,3.0115,3.0145,3.0146,3.0165,3.017,3.0176,3.0179,3.0202,3.0213,3.0211,3.0212,3.0224,3.0236,3.0235,3.024,3.0253,3.0249,3.0194,3.0186,3.0178,3.017,3.0255,3.0255,3.0305,3.0306,3.0306]}]]